Regional Weather Roundup
Issued by NWS Northern Indiana

Home | Current Version | Previous Version | Text Only | Print | Product List | Glossary On
Versions: 1 2 3 4 5 6 7 8 9 10 11 12 13 14 15 16 17 18 19 20 21 22 23 24 25 26 27 28 29 30 31 32 33 34 35 36 37 38 39 40 41 42 43 44 45 46 47 48 49 50
000
ASUS43 KIWX 301510
RWRIWX

KIWX WEATHER ROUNDUP
NATIONAL WEATHER SERVICE NORTHERN INDIANA
1100 AM EDT TUE AUG 30 2016

NOTE: "FAIR" INDICATES FEW OR NO CLOUDS BELOW 12,000 FEET WITH NO
SIGNIFICANT WEATHER AND/OR OBSTRUCTIONS TO VISIBILITY.

* THESE STATIONS ARE NOT UNDER NWS QUALITY CONTROL. THEY ALSO MAY NOT
  REPORT WEATHER SUCH AS PRECIPITATION OR FOG.

INZ001>027-301600-
NORTHERN INDIANA

CITY           SKY/WX    TMP DP  RH WIND       PRES   REMARKS
GARY*          CLOUDY    75  75 100 CALM      30.14S FOG
VALPARAISO     CLOUDY    72  70  93 E9        30.14F
MICHIGAN CITY* DRIZZLE   70  70 100 MISG      30.15F
LAPORTE*       RAIN     N/A N/A N/A E5        30.16F
KNOX*          CLOUDY    72  55  56 CALM      30.16S
SOUTH BEND     CLOUDY    72  69  90 N7        30.17R
ELKHART*       PTSUNNY  N/A N/A N/A N9        30.17R
GOSHEN         PTSUNNY   75  66  73 S5        30.16S
MONTICELLO*    CLOUDY    77  69  76 W7        30.14F
LOGANSPORT*    MOSUNNY   77  72  83 S5        30.16S
ROCHESTER*     CLOUDY    81  72  74 SW3       30.16F
WARSAW*        CLOUDY    77  72  83 CALM      30.16F
ANGOLA*        SUNNY     75  68  78 N3        30.17S
FORT WAYNE     PTSUNNY   80  67  64 S6        30.17S
HUNTINGTON*    CLOUDY    77  70  79 CALM      30.16F
PERU/GRISSOM   PTSUNNY   78  72  79 S3        30.15F
MARION*        CLOUDY    78  70  75 CALM      30.17F HAZE

$$
INZ028>050-301600-
CENTRAL INDIANA

CITY           SKY/WX    TMP DP  RH WIND       PRES   REMARKS
LAFAYETTE      CLOUDY    77  74  90 W14       30.15S
KOKOMO*        CLOUDY    79  72  78 S6        30.16F
MUNCIE*        MOSUNNY   82  69  64 SW6       30.17S
INDIANAPOLIS   MOSUNNY   82  70  66 SE7       30.15S

$$
MIZ043>046-050>051-056>058-064>065-071>073-077>080-301600-
SOUTHWEST LOWER MICHIGAN

CITY           SKY/WX    TMP DP  RH WIND       PRES   REMARKS
BATTLE CREEK   CLOUDY    70  68  93 SW8       30.17S
BENTON HARBOR  LGT RAIN  69  66  90 S6        30.15F
COLDWATER*     LGT RAIN  71  64  81 CALM      30.17F
HILLSDALE*     PTSUNNY   75  60  58 CALM      30.18S
HOLLAND        CLOUDY    76  69  79 SW7       30.15F
GRAND RAPIDS   PTSUNNY   76  67  73 S7        30.14F
KALAMAZOO      LGT RAIN  72  69  90 S3        30.16F
STURGIS*       CLOUDY    76  66  72 CALM      30.16F
THREE RIVERS*  LGT RAIN  72  70  95 CALM      30.17F

$$
OHZ001>008-015>018-024>025-301600-
NORTHWEST OHIO

CITY           SKY/WX    TMP DP  RH WIND       PRES   REMARKS
WAUSEON*       FAIR      77  63  61 S3        30.16F
DEFIANCE       MOSUNNY   78  64  61 W5        30.16F
FINDLAY        SUNNY     78  64  61 CALM      30.16F
TOLEDO EXPRESS SUNNY     76  64  66 CALM      30.16F
TOLEDO METCALF SUNNY     76  65  68 S5        30.17F
LIMA           SUNNY     78  66  66 S3        30.17F

$$
AND FOR LAKE MICHIGAN COASTAL AND OPEN LAKE BUOY OBSERVATIONS

STATION/POSITION TEMP    WIND        PRES    VSBY  WAVE
                 AIR SEA DIR/SP/G                  HT/PER
                 (F)     (DEG/KT/KT) (MB)    (MI)  (FT/S)
CALUMET HARBOR    74      90/  4/  4 1019.6F
MICHIGAN CITY     73     170/  3/  5   N/A
BURNS HARBOR      73     140/  3/ 11 1021.0F
SAINT JOSEPH      69     200/  1/  4 1021.3F
SOUTH LAKE BUOY   74 76  170/ 14/ 14 1019.5F         1/ 3
4 MI NW BRIDGMAN  67 68  120/  4/  6 1021.0F         1
MICHIGAN CITY     70 71   80/ 10/ 14   N/A           1/ 2

$$
&&



USA.gov is the U.S. government's official web portal to all federal, state and local government web resources and services.